﻿測定場所 (Monitoring sites),日付 (Measurement date),時間 (Measurement time),線量率 最大値 (max) μGy/h,線量率 最小値 (min) μGy/h,線量率 平均値 (average) μGy/h,
新宿 (Shinjuku),2011-07-31,23:00～23:59,0.0592,0.0547,0.0569,
新宿 (Shinjuku),2011-07-31,22:00～22:59,0.0589,0.0548,0.0568,
新宿 (Shinjuku),2011-07-31,21:00～21:59,0.0604,0.0545,0.0568,
新宿 (Shinjuku),2011-07-31,20:00～20:59,0.0592,0.0537,0.0565,
新宿 (Shinjuku),2011-07-31,19:00～19:59,0.0586,0.0541,0.0566,
新宿 (Shinjuku),2011-07-31,18:00～18:59,0.0596,0.0541,0.0570,
新宿 (Shinjuku),2011-07-31,17:00～17:59,0.0589,0.0539,0.0568,
新宿 (Shinjuku),2011-07-31,16:00～16:59,0.0600,0.0537,0.0567,
新宿 (Shinjuku),2011-07-31,15:00～15:59,0.0590,0.0534,0.0567,
新宿 (Shinjuku),2011-07-31,14:00～14:59,0.0592,0.0541,0.0567,
新宿 (Shinjuku),2011-07-31,13:00～13:59,0.0594,0.0547,0.0570,
新宿 (Shinjuku),2011-07-31,12:00～12:59,0.0596,0.0553,0.0571,
新宿 (Shinjuku),2011-07-31,11:00～11:59,0.0599,0.0543,0.0569,
新宿 (Shinjuku),2011-07-31,10:00～10:59,0.0596,0.0547,0.0566,
新宿 (Shinjuku),2011-07-31,09:00～09:59,0.0601,0.0546,0.0569,
新宿 (Shinjuku),2011-07-31,08:00～08:59,0.0597,0.0541,0.0572,
新宿 (Shinjuku),2011-07-31,07:00～07:59,0.0600,0.0544,0.0572,
新宿 (Shinjuku),2011-07-31,06:00～06:59,0.0607,0.0544,0.0567,
新宿 (Shinjuku),2011-07-31,05:00～05:59,0.0595,0.0551,0.0573,
新宿 (Shinjuku),2011-07-31,04:00～04:59,0.0610,0.0557,0.0577,
新宿 (Shinjuku),2011-07-31,03:00～03:59,0.0600,0.0543,0.0570,
新宿 (Shinjuku),2011-07-31,02:00～02:59,0.0604,0.0550,0.0571,
新宿 (Shinjuku),2011-07-31,01:00～01:59,0.0596,0.0539,0.0572,
新宿 (Shinjuku),2011-07-31,00:00～00:59,0.0600,0.0556,0.0576,
新宿 (Shinjuku),2011-07-30,23:00～23:59,0.0604,0.0535,0.0570,
新宿 (Shinjuku),2011-07-30,22:00～22:59,0.0610,0.0548,0.0578,
新宿 (Shinjuku),2011-07-30,21:00～21:59,0.0621,0.0561,0.0587,
新宿 (Shinjuku),2011-07-30,20:00～20:59,0.0616,0.0548,0.0582,
新宿 (Shinjuku),2011-07-30,19:00～19:59,0.0592,0.0545,0.0571,
新宿 (Shinjuku),2011-07-30,18:00～18:59,0.0600,0.0544,0.0569,
新宿 (Shinjuku),2011-07-30,17:00～17:59,0.0593,0.0543,0.0570,
新宿 (Shinjuku),2011-07-30,16:00～16:59,0.0589,0.0537,0.0568,
新宿 (Shinjuku),2011-07-30,15:00～15:59,0.0601,0.0541,0.0575,
新宿 (Shinjuku),2011-07-30,14:00～14:59,0.0607,0.0557,0.0581,
新宿 (Shinjuku),2011-07-30,13:00～13:59,0.0607,0.0554,0.0578,
新宿 (Shinjuku),2011-07-30,12:00～12:59,0.0607,0.0558,0.0578,
新宿 (Shinjuku),2011-07-30,11:00～11:59,0.0612,0.0554,0.0578,
新宿 (Shinjuku),2011-07-30,10:00～10:59,0.0599,0.0548,0.0579,
新宿 (Shinjuku),2011-07-30,09:00～09:59,0.0600,0.0555,0.0572,
新宿 (Shinjuku),2011-07-30,08:00～08:59,0.0617,0.0558,0.0576,
新宿 (Shinjuku),2011-07-30,07:00～07:59,0.0621,0.0562,0.0592,
新宿 (Shinjuku),2011-07-30,06:00～06:59,0.0684,0.0590,0.0635,
新宿 (Shinjuku),2011-07-30,05:00～05:59,0.0735,0.0658,0.0700,
新宿 (Shinjuku),2011-07-30,04:00～04:59,0.0692,0.0569,0.0628,
新宿 (Shinjuku),2011-07-30,03:00～03:59,0.0692,0.0596,0.0644,
新宿 (Shinjuku),2011-07-30,02:00～02:59,0.0654,0.0571,0.0613,
新宿 (Shinjuku),2011-07-30,01:00～01:59,0.0631,0.0572,0.0598,
新宿 (Shinjuku),2011-07-30,00:00～00:59,0.0684,0.0592,0.0633,
新宿 (Shinjuku),2011-07-29,23:00～23:59,0.0667,0.0587,0.0633,
新宿 (Shinjuku),2011-07-29,22:00～22:59,0.0619,0.0565,0.0588,
新宿 (Shinjuku),2011-07-29,21:00～21:59,0.0654,0.0572,0.0610,
新宿 (Shinjuku),2011-07-29,20:00～20:59,0.0697,0.0614,0.0667,
新宿 (Shinjuku),2011-07-29,19:00～19:59,0.0691,0.0596,0.0637,
新宿 (Shinjuku),2011-07-29,18:00～18:59,0.0610,0.0551,0.0578,
新宿 (Shinjuku),2011-07-29,17:00～17:59,0.0603,0.0552,0.0576,
新宿 (Shinjuku),2011-07-29,16:00～16:59,0.0607,0.0558,0.0581,
新宿 (Shinjuku),2011-07-29,15:00～15:59,0.0605,0.0551,0.0576,
新宿 (Shinjuku),2011-07-29,14:00～14:59,0.0622,0.0569,0.0586,
新宿 (Shinjuku),2011-07-29,13:00～13:59,0.0629,0.0564,0.0598,
新宿 (Shinjuku),2011-07-29,12:00～12:59,0.0654,0.0598,0.0625,
新宿 (Shinjuku),2011-07-29,11:00～11:59,0.0645,0.0591,0.0617,
新宿 (Shinjuku),2011-07-29,10:00～10:59,0.0640,0.0588,0.0613,
新宿 (Shinjuku),2011-07-29,09:00～09:59,0.0631,0.0572,0.0599,
新宿 (Shinjuku),2011-07-29,08:00～08:59,0.0626,0.0576,0.0600,
新宿 (Shinjuku),2011-07-29,07:00～07:59,0.0622,0.0556,0.0589,
新宿 (Shinjuku),2011-07-29,06:00～06:59,0.0612,0.0560,0.0589,
新宿 (Shinjuku),2011-07-29,05:00～05:59,0.0614,0.0567,0.0587,
新宿 (Shinjuku),2011-07-29,04:00～04:59,0.0605,0.0554,0.0586,
新宿 (Shinjuku),2011-07-29,03:00～03:59,0.0604,0.0555,0.0581,
新宿 (Shinjuku),2011-07-29,02:00～02:59,0.0603,0.0558,0.0582,
新宿 (Shinjuku),2011-07-29,01:00～01:59,0.0610,0.0560,0.0582,
新宿 (Shinjuku),2011-07-29,00:00～00:59,0.0617,0.0557,0.0592,
新宿 (Shinjuku),2011-07-28,23:00～23:59,0.0645,0.0589,0.0617,
新宿 (Shinjuku),2011-07-28,22:00～22:59,0.0632,0.0568,0.0597,
新宿 (Shinjuku),2011-07-28,21:00～21:59,0.0639,0.0578,0.0608,
新宿 (Shinjuku),2011-07-28,20:00～20:59,0.0619,0.0565,0.0591,
新宿 (Shinjuku),2011-07-28,19:00～19:59,0.0607,0.0557,0.0586,
新宿 (Shinjuku),2011-07-28,18:00～18:59,0.0610,0.0563,0.0582,
新宿 (Shinjuku),2011-07-28,17:00～17:59,0.0605,0.0562,0.0581,
新宿 (Shinjuku),2011-07-28,16:00～16:59,0.0608,0.0558,0.0583,
新宿 (Shinjuku),2011-07-28,15:00～15:59,0.0613,0.0560,0.0587,
新宿 (Shinjuku),2011-07-28,14:00～14:59,0.0610,0.0551,0.0584,
新宿 (Shinjuku),2011-07-28,13:00～13:59,0.0603,0.0562,0.0584,
新宿 (Shinjuku),2011-07-28,12:00～12:59,0.0607,0.0555,0.0581,
新宿 (Shinjuku),2011-07-28,11:00～11:59,0.0605,0.0562,0.0582,
新宿 (Shinjuku),2011-07-28,10:00～10:59,0.0609,0.0558,0.0582,
新宿 (Shinjuku),2011-07-28,09:00～09:59,0.0613,0.0554,0.0583,
新宿 (Shinjuku),2011-07-28,08:00～08:59,0.0625,0.0568,0.0593,
新宿 (Shinjuku),2011-07-28,07:00～07:59,0.0633,0.0576,0.0603,
新宿 (Shinjuku),2011-07-28,06:00～06:59,0.0627,0.0562,0.0586,
新宿 (Shinjuku),2011-07-28,05:00～05:59,0.0611,0.0557,0.0584,
新宿 (Shinjuku),2011-07-28,04:00～04:59,0.0618,0.0562,0.0589,
新宿 (Shinjuku),2011-07-28,03:00～03:59,0.0617,0.0566,0.0593,
新宿 (Shinjuku),2011-07-28,02:00～02:59,0.0619,0.0565,0.0591,
新宿 (Shinjuku),2011-07-28,01:00～01:59,0.0608,0.0561,0.0582,
新宿 (Shinjuku),2011-07-28,00:00～00:59,0.0602,0.0552,0.0579,
新宿 (Shinjuku),2011-07-27,23:00～23:59,0.0599,0.0548,0.0575,
新宿 (Shinjuku),2011-07-27,22:00～22:59,0.0609,0.0551,0.0576,
新宿 (Shinjuku),2011-07-27,21:00～21:59,0.0610,0.0547,0.0579,
新宿 (Shinjuku),2011-07-27,20:00～20:59,0.0606,0.0550,0.0576,
新宿 (Shinjuku),2011-07-27,19:00～19:59,0.0604,0.0551,0.0577,
新宿 (Shinjuku),2011-07-27,18:00～18:59,0.0605,0.0551,0.0573,
新宿 (Shinjuku),2011-07-27,17:00～17:59,0.0596,0.0552,0.0575,
新宿 (Shinjuku),2011-07-27,16:00～16:59,0.0617,0.0552,0.0579,
新宿 (Shinjuku),2011-07-27,15:00～15:59,0.0599,0.0554,0.0575,
新宿 (Shinjuku),2011-07-27,14:00～14:59,0.0612,0.0553,0.0582,
新宿 (Shinjuku),2011-07-27,13:00～13:59,0.0609,0.0567,0.0586,
新宿 (Shinjuku),2011-07-27,12:00～12:59,0.0621,0.0560,0.0583,
新宿 (Shinjuku),2011-07-27,11:00～11:59,0.0603,0.0554,0.0580,
新宿 (Shinjuku),2011-07-27,10:00～10:59,0.0608,0.0551,0.0583,
新宿 (Shinjuku),2011-07-27,09:00～09:59,0.0613,0.0557,0.0581,
新宿 (Shinjuku),2011-07-27,08:00～08:59,0.0608,0.0556,0.0582,
新宿 (Shinjuku),2011-07-27,07:00～07:59,0.0614,0.0559,0.0585,
新宿 (Shinjuku),2011-07-27,06:00～06:59,0.0607,0.0555,0.0581,
新宿 (Shinjuku),2011-07-27,05:00～05:59,0.0600,0.0558,0.0579,
新宿 (Shinjuku),2011-07-27,04:00～04:59,0.0603,0.0536,0.0575,
新宿 (Shinjuku),2011-07-27,03:00～03:59,0.0603,0.0558,0.0578,
新宿 (Shinjuku),2011-07-27,02:00～02:59,0.0596,0.0556,0.0578,
新宿 (Shinjuku),2011-07-27,01:00～01:59,0.0600,0.0544,0.0574,
新宿 (Shinjuku),2011-07-27,00:00～00:59,0.0598,0.0545,0.0573,
新宿 (Shinjuku),2011-07-26,23:00～23:59,0.0610,0.0548,0.0573,
新宿 (Shinjuku),2011-07-26,22:00～22:59,0.0593,0.0544,0.0572,
新宿 (Shinjuku),2011-07-26,21:00～21:59,0.0601,0.0548,0.0573,
新宿 (Shinjuku),2011-07-26,20:00～20:59,0.0597,0.0546,0.0574,
新宿 (Shinjuku),2011-07-26,19:00～19:59,0.0596,0.0549,0.0570,
新宿 (Shinjuku),2011-07-26,18:00～18:59,0.0600,0.0548,0.0573,
新宿 (Shinjuku),2011-07-26,17:00～17:59,0.0595,0.0549,0.0571,
新宿 (Shinjuku),2011-07-26,16:00～16:59,0.0603,0.0553,0.0579,
新宿 (Shinjuku),2011-07-26,15:00～15:59,0.0601,0.0556,0.0575,
新宿 (Shinjuku),2011-07-26,14:00～14:59,0.0602,0.0541,0.0577,
新宿 (Shinjuku),2011-07-26,13:00～13:59,0.0601,0.0548,0.0575,
新宿 (Shinjuku),2011-07-26,12:00～12:59,0.0610,0.0551,0.0575,
新宿 (Shinjuku),2011-07-26,11:00～11:59,0.0598,0.0541,0.0571,
新宿 (Shinjuku),2011-07-26,10:00～10:59,0.0617,0.0560,0.0578,
新宿 (Shinjuku),2011-07-26,09:00～09:59,0.0598,0.0541,0.0578,
新宿 (Shinjuku),2011-07-26,08:00～08:59,0.0604,0.0533,0.0573,
新宿 (Shinjuku),2011-07-26,07:00～07:59,0.0596,0.0558,0.0574,
新宿 (Shinjuku),2011-07-26,06:00～06:59,0.0604,0.0548,0.0575,
新宿 (Shinjuku),2011-07-26,05:00～05:59,0.0598,0.0555,0.0578,
新宿 (Shinjuku),2011-07-26,04:00～04:59,0.0609,0.0551,0.0577,
新宿 (Shinjuku),2011-07-26,03:00～03:59,0.0616,0.0548,0.0575,
新宿 (Shinjuku),2011-07-26,02:00～02:59,0.0601,0.0544,0.0576,
新宿 (Shinjuku),2011-07-26,01:00～01:59,0.0599,0.0542,0.0573,
新宿 (Shinjuku),2011-07-26,00:00～00:59,0.0592,0.0547,0.0570,
新宿 (Shinjuku),2011-07-25,23:00～23:59,0.0595,0.0538,0.0573,
新宿 (Shinjuku),2011-07-25,22:00～22:59,0.0598,0.0549,0.0573,
新宿 (Shinjuku),2011-07-25,21:00～21:59,0.0597,0.0550,0.0572,
新宿 (Shinjuku),2011-07-25,20:00～20:59,0.0610,0.0544,0.0572,
新宿 (Shinjuku),2011-07-25,19:00～19:59,0.0590,0.0541,0.0570,
新宿 (Shinjuku),2011-07-25,18:00～18:59,0.0592,0.0542,0.0567,
新宿 (Shinjuku),2011-07-25,17:00～17:59,0.0600,0.0544,0.0572,
新宿 (Shinjuku),2011-07-25,16:00～16:59,0.0600,0.0551,0.0574,
新宿 (Shinjuku),2011-07-25,15:00～15:59,0.0607,0.0551,0.0578,
新宿 (Shinjuku),2011-07-25,14:00～14:59,0.0600,0.0518,0.0569,
新宿 (Shinjuku),2011-07-25,13:00～13:59,0.0603,0.0549,0.0579,
新宿 (Shinjuku),2011-07-25,12:00～12:59,0.0597,0.0555,0.0576,
新宿 (Shinjuku),2011-07-25,11:00～11:59,0.0602,0.0539,0.0575,
新宿 (Shinjuku),2011-07-25,10:00～10:59,0.0596,0.0551,0.0575,
新宿 (Shinjuku),2011-07-25,09:00～09:59,0.0606,0.0555,0.0575,
新宿 (Shinjuku),2011-07-25,08:00～08:59,0.0603,0.0558,0.0576,
新宿 (Shinjuku),2011-07-25,07:00～07:59,0.0606,0.0544,0.0578,
新宿 (Shinjuku),2011-07-25,06:00～06:59,0.0602,0.0550,0.0577,
新宿 (Shinjuku),2011-07-25,05:00～05:59,0.0603,0.0551,0.0573,
新宿 (Shinjuku),2011-07-25,04:00～04:59,0.0613,0.0555,0.0575,
新宿 (Shinjuku),2011-07-25,03:00～03:59,0.0591,0.0551,0.0572,
新宿 (Shinjuku),2011-07-25,02:00～02:59,0.0605,0.0554,0.0572,
新宿 (Shinjuku),2011-07-25,01:00～01:59,0.0595,0.0553,0.0574,
新宿 (Shinjuku),2011-07-25,00:00～00:59,0.0601,0.0543,0.0570,
